Time,TemperatureF,DewpointF,PressureIn,WindDirection,WindDirectionDegrees,WindSpeedMPH,WindSpeedGustMPH,Humidity,HourlyPrecipIn,Conditions,Clouds,dailyrainin,SoftwareType,DateUTC
2014-02-02 00:12:00,4.0,1.0,30.00,ESE,115,0.0,-999.0,88,-99.99,,,-99.99,,2014-02-02 07:12:00,
2014-02-02 00:22:00,4.0,2.0,30.00,ESE,115,0.0,-999.0,89,-99.99,,,-99.99,,2014-02-02 07:22:00,
2014-02-02 00:42:00,3.0,0.0,30.00,ESE,115,0.0,-999.0,88,-99.99,,,-99.99,,2014-02-02 07:42:00,
2014-02-02 00:52:00,3.0,1.0,30.00,ESE,115,0.0,-999.0,89,-99.99,,,-99.99,,2014-02-02 07:52:00,
2014-02-02 01:11:00,3.0,1.0,29.97,ESE,115,0.0,-999.0,89,-99.99,,,-99.99,,2014-02-02 08:11:00,
2014-02-02 01:22:00,3.0,0.0,29.97,ESE,115,0.0,-999.0,88,-99.99,,,-99.99,,2014-02-02 08:22:00,
2014-02-02 01:42:00,1.0,-2.0,29.97,ESE,115,0.0,-999.0,87,-99.99,,,-99.99,,2014-02-02 08:42:00,
2014-02-02 01:52:00,1.0,-2.0,29.97,NNW,333,2.0,-999.0,88,-99.99,,,-99.99,,2014-02-02 08:52:00,
2014-02-02 02:12:00,0.0,-3.0,29.96,NNW,332,2.0,-999.0,87,-99.99,,,-99.99,,2014-02-02 09:12:00,
2014-02-02 02:21:00,1.0,-2.0,29.96,NNW,331,2.0,-999.0,87,-99.99,,,-99.99,,2014-02-02 09:21:00,
2014-02-02 02:43:00,2.0,-1.0,29.97,NNW,330,1.0,-999.0,87,-99.99,,,-99.99,,2014-02-02 09:43:00,
2014-02-02 02:53:00,3.0,0.0,29.95,NNW,330,0.0,-999.0,87,-99.99,,,-99.99,,2014-02-02 09:53:00,
2014-02-02 03:13:00,2.0,-1.0,29.95,NNW,330,0.0,-999.0,86,-99.99,,,-99.99,,2014-02-02 10:13:00,
2014-02-02 03:23:00,4.0,2.0,29.95,NNW,330,0.0,-999.0,89,-99.99,,,-99.99,,2014-02-02 10:23:00,
2014-02-02 03:43:00,5.0,2.0,29.95,NNW,330,1.0,-999.0,88,-99.99,,,-99.99,,2014-02-02 10:43:00,
2014-02-02 03:52:00,5.0,2.0,29.95,NNW,330,0.0,-999.0,87,-99.99,,,-99.99,,2014-02-02 10:52:00,
2014-02-02 04:02:00,5.0,2.0,29.95,NNW,330,0.0,-999.0,87,-99.99,,,-99.99,,2014-02-02 11:02:00,
2014-02-02 04:12:00,5.0,2.0,29.95,NNW,330,0.0,-999.0,87,-99.99,,,-99.99,,2014-02-02 11:12:00,
2014-02-02 04:22:00,5.0,2.0,29.95,NNW,330,0.0,-999.0,87,-99.99,,,-99.99,,2014-02-02 11:22:00,
2014-02-02 04:33:00,5.0,2.0,29.95,NNW,330,0.0,-999.0,87,-99.99,,,-99.99,,2014-02-02 11:33:00,
2014-02-02 04:43:00,5.0,2.0,29.95,NNW,330,0.0,-999.0,87,-99.99,,,-99.99,,2014-02-02 11:43:00,
2014-02-02 04:53:00,7.0,4.0,29.95,NNW,330,0.0,-999.0,88,-99.99,,,-99.99,,2014-02-02 11:53:00,
2014-02-02 05:12:00,8.0,5.0,29.95,NNW,330,0.0,-999.0,88,-99.99,,,-99.99,,2014-02-02 12:12:00,
2014-02-02 05:22:00,8.0,5.0,29.95,NNW,330,0.0,-999.0,87,-99.99,,,-99.99,,2014-02-02 12:22:00,
2014-02-02 05:42:00,9.0,5.0,29.95,NNW,330,0.0,-999.0,85,-99.99,,,-99.99,,2014-02-02 12:42:00,
2014-02-02 06:22:00,7.0,3.0,29.93,NNW,330,0.0,-999.0,82,-99.99,,,-99.99,,2014-02-02 13:22:00,
2014-02-02 06:42:00,8.0,4.0,29.94,NNW,330,0.0,-999.0,83,-99.99,,,-99.99,,2014-02-02 13:42:00,
2014-02-02 06:52:00,8.0,3.0,29.94,NNW,330,1.0,-999.0,80,-99.99,,,-99.99,,2014-02-02 13:52:00,
2014-02-02 07:11:00,8.0,3.0,29.94,NNW,330,1.0,-999.0,81,-99.99,,,-99.99,,2014-02-02 14:11:00,
2014-02-02 07:22:00,8.0,3.0,29.94,NNW,330,1.0,-999.0,81,-99.99,,,-99.99,,2014-02-02 14:22:00,
2014-02-02 07:32:00,8.0,3.0,29.94,NNW,330,1.0,-999.0,81,-99.99,,,-99.99,,2014-02-02 14:32:00,
2014-02-02 07:42:00,8.0,3.0,29.94,NNW,330,1.0,-999.0,81,-99.99,,,-99.99,,2014-02-02 14:42:00,
2014-02-02 07:52:00,7.0,3.0,29.96,NNW,331,1.0,-999.0,82,-99.99,,,-99.99,,2014-02-02 14:52:00,
2014-02-02 08:12:00,9.0,4.0,29.96,NNW,330,1.0,-999.0,79,-99.99,,,-99.99,,2014-02-02 15:12:00,
2014-02-02 08:22:00,9.0,4.0,29.96,NNW,330,1.0,-999.0,79,-99.99,,,-99.99,,2014-02-02 15:22:00,
2014-02-02 08:33:00,9.0,4.0,29.96,NNW,330,1.0,-999.0,79,-99.99,,,-99.99,,2014-02-02 15:33:00,
2014-02-02 08:43:00,9.0,4.0,29.96,NNW,330,1.0,-999.0,79,-99.99,,,-99.99,,2014-02-02 15:43:00,
2014-02-02 08:54:00,11.0,5.0,29.98,NNW,331,2.0,-999.0,75,-99.99,,,-99.99,,2014-02-02 15:54:00,
2014-02-02 09:12:00,11.0,4.0,29.98,NNW,331,3.0,-999.0,74,-99.99,,,-99.99,,2014-02-02 16:12:00,
2014-02-02 09:23:00,13.0,6.0,29.98,NNW,331,0.0,-999.0,73,-99.99,,,-99.99,,2014-02-02 16:23:00,
2014-02-02 09:42:00,15.0,8.0,29.98,NNW,331,0.0,-999.0,72,-99.99,,,-99.99,,2014-02-02 16:42:00,
2014-02-02 09:53:00,16.0,7.0,29.98,NNW,331,0.0,-999.0,68,-99.99,,,-99.99,,2014-02-02 16:53:00,
2014-02-02 10:11:00,17.0,8.0,29.98,NNW,331,0.0,-999.0,66,-99.99,,,-99.99,,2014-02-02 17:11:00,
2014-02-02 10:22:00,19.0,9.0,29.99,NNW,331,0.0,-999.0,64,-99.99,,,-99.99,,2014-02-02 17:22:00,
2014-02-02 10:42:00,21.0,9.0,29.99,East,86,1.0,-999.0,59,-99.99,,,-99.99,,2014-02-02 17:42:00,
2014-02-02 10:52:00,21.0,9.0,29.99,East,86,0.0,-999.0,60,-99.99,,,-99.99,,2014-02-02 17:52:00,
2014-02-02 11:11:00,24.0,12.0,29.99,East,94,1.0,-999.0,60,-99.99,,,-99.99,,2014-02-02 18:11:00,
2014-02-02 11:22:00,21.0,9.0,29.98,East,94,1.0,-999.0,60,-99.99,,,-99.99,,2014-02-02 18:22:00,
2014-02-02 11:32:00,21.0,9.0,29.98,East,94,1.0,-999.0,60,-99.99,,,-99.99,,2014-02-02 18:32:00,
2014-02-02 11:43:00,21.0,9.0,29.98,East,94,1.0,-999.0,60,-99.99,,,-99.99,,2014-02-02 18:43:00,
2014-02-02 11:52:00,21.0,11.0,29.97,East,86,2.0,-999.0,64,-99.99,,,-99.99,,2014-02-02 18:52:00,
2014-02-02 12:12:00,21.0,9.0,29.97,East,82,3.0,-999.0,58,-99.99,,,-99.99,,2014-02-02 19:12:00,
2014-02-02 12:22:00,21.0,8.0,29.96,ESE,108,1.0,-999.0,57,-99.99,,,-99.99,,2014-02-02 19:22:00,
2014-02-02 12:32:00,21.0,8.0,29.96,ESE,108,1.0,-999.0,57,-99.99,,,-99.99,,2014-02-02 19:32:00,
2014-02-02 13:22:00,23.0,7.0,29.94,ENE,70,1.0,-999.0,50,-99.99,,,-99.99,,2014-02-02 20:22:00,
2014-02-02 13:42:00,24.0,9.0,29.93,ENE,74,1.0,-999.0,51,-99.99,,,-99.99,,2014-02-02 20:42:00,
2014-02-02 13:52:00,24.0,9.0,29.93,NE,44,1.0,-999.0,52,-99.99,,,-99.99,,2014-02-02 20:52:00,
2014-02-02 14:12:00,24.0,8.0,29.93,NE,44,1.0,-999.0,49,-99.99,,,-99.99,,2014-02-02 21:12:00,
2014-02-02 14:22:00,24.0,8.0,29.93,ENE,69,1.0,-999.0,50,-99.99,,,-99.99,,2014-02-02 21:22:00,
2014-02-02 14:44:00,24.0,8.0,29.93,ENE,69,1.0,-999.0,49,-99.99,,,-99.99,,2014-02-02 21:44:00,
2014-02-02 14:53:00,24.0,9.0,29.94,ENE,69,1.0,-999.0,52,-99.99,,,-99.99,,2014-02-02 21:53:00,
2014-02-02 15:13:00,24.0,8.0,29.94,ENE,69,1.0,-999.0,50,-99.99,,,-99.99,,2014-02-02 22:13:00,
2014-02-02 15:22:00,23.0,7.0,29.94,ENE,69,1.0,-999.0,50,-99.99,,,-99.99,,2014-02-02 22:22:00,
2014-02-02 15:42:00,23.0,6.0,29.94,ENE,71,1.0,-999.0,48,-99.99,,,-99.99,,2014-02-02 22:42:00,
2014-02-02 15:52:00,23.0,8.0,29.94,ENE,72,1.0,-999.0,52,-99.99,,,-99.99,,2014-02-02 22:52:00,
2014-02-02 16:12:00,23.0,8.0,29.95,ENE,76,0.0,-999.0,52,-99.99,,,-99.99,,2014-02-02 23:12:00,
2014-02-02 16:22:00,23.0,8.0,29.95,ENE,76,0.0,-999.0,52,-99.99,,,-99.99,,2014-02-02 23:22:00,
2014-02-02 16:33:00,23.0,8.0,29.95,ENE,76,0.0,-999.0,52,-99.99,,,-99.99,,2014-02-02 23:33:00,
2014-02-02 16:42:00,23.0,8.0,29.95,ENE,76,0.0,-999.0,52,-99.99,,,-99.99,,2014-02-02 23:42:00,
2014-02-02 17:12:00,21.0,4.0,29.92,ENE,76,0.0,-999.0,47,-99.99,,,-99.99,,2014-02-03 00:12:00,
2014-02-02 17:22:00,21.0,4.0,29.92,ENE,76,0.0,-999.0,47,-99.99,,,-99.99,,2014-02-03 00:22:00,
2014-02-02 17:42:00,18.0,5.0,29.91,ENE,76,0.0,-999.0,55,-99.99,,,-99.99,,2014-02-03 00:42:00,
2014-02-02 17:52:00,17.0,5.0,29.93,ENE,76,0.0,-999.0,58,-99.99,,,-99.99,,2014-02-03 00:52:00,
2014-02-02 18:12:00,16.0,4.0,29.94,ENE,76,0.0,-999.0,58,-99.99,,,-99.99,,2014-02-03 01:12:00,
2014-02-02 18:22:00,15.0,3.0,29.93,ENE,76,0.0,-999.0,58,-99.99,,,-99.99,,2014-02-03 01:22:00,
2014-02-02 18:42:00,15.0,3.0,29.93,ENE,76,0.0,-999.0,58,-99.99,,,-99.99,,2014-02-03 01:42:00,
2014-02-02 18:52:00,15.0,5.0,29.93,ENE,76,0.0,-999.0,64,-99.99,,,-99.99,,2014-02-03 01:52:00,
2014-02-02 19:11:00,14.0,4.0,29.93,ENE,76,0.0,-999.0,63,-99.99,,,-99.99,,2014-02-03 02:11:00,
2014-02-02 19:22:00,14.0,4.0,29.93,ENE,76,1.0,-999.0,64,-99.99,,,-99.99,,2014-02-03 02:22:00,
2014-02-02 19:42:00,14.0,4.0,29.93,NE,55,1.0,-999.0,65,-99.99,,,-99.99,,2014-02-03 02:42:00,
2014-02-02 19:52:00,12.0,3.0,29.93,North,355,2.0,-999.0,67,-99.99,,,-99.99,,2014-02-03 02:52:00,
2014-02-02 20:12:00,13.0,4.0,29.92,North,355,1.0,-999.0,66,-99.99,,,-99.99,,2014-02-03 03:12:00,
2014-02-02 20:21:00,13.0,4.0,29.92,North,355,1.0,-999.0,66,-99.99,,,-99.99,,2014-02-03 03:21:00,
2014-02-02 20:43:00,12.0,4.0,29.91,NW,310,3.0,-999.0,69,-99.99,,,-99.99,,2014-02-03 03:43:00,
2014-02-02 20:53:00,11.0,3.0,29.91,NW,310,4.0,-999.0,69,-99.99,,,-99.99,,2014-02-03 03:53:00,
2014-02-02 21:13:00,10.0,3.0,29.90,NW,316,5.0,-999.0,71,-99.99,,,-99.99,,2014-02-03 04:13:00,
2014-02-02 21:23:00,11.0,3.0,29.90,NW,316,4.0,-999.0,70,-99.99,,,-99.99,,2014-02-03 04:23:00,
2014-02-02 21:53:00,10.0,2.0,29.90,NW,323,7.0,-999.0,70,-99.99,,,-99.99,,2014-02-03 04:53:00,
2014-02-02 22:13:00,10.0,3.0,29.89,NNW,331,7.0,-999.0,72,-99.99,,,-99.99,,2014-02-03 05:13:00,
2014-02-02 22:22:00,11.0,3.0,29.89,NW,325,5.0,-999.0,70,-99.99,,,-99.99,,2014-02-03 05:22:00,
2014-02-02 22:34:00,11.0,3.0,29.89,NW,325,5.0,-999.0,70,-99.99,,,-99.99,,2014-02-03 05:34:00,
2014-02-02 22:43:00,11.0,3.0,29.89,NW,325,5.0,-999.0,70,-99.99,,,-99.99,,2014-02-03 05:43:00,
2014-02-02 22:53:00,11.0,3.0,29.88,NNW,327,6.0,-999.0,70,-99.99,,,-99.99,,2014-02-03 05:53:00,
2014-02-02 23:02:00,11.0,3.0,29.88,NNW,327,6.0,-999.0,70,-99.99,,,-99.99,,2014-02-03 06:02:00,
2014-02-02 23:12:00,11.0,3.0,29.88,NNW,327,6.0,-999.0,70,-99.99,,,-99.99,,2014-02-03 06:12:00,
2014-02-02 23:21:00,12.0,4.0,29.87,NNW,327,3.0,-999.0,69,-99.99,,,-99.99,,2014-02-03 06:21:00,
2014-02-02 23:42:00,12.0,4.0,29.87,NNW,327,3.0,-999.0,68,-99.99,,,-99.99,,2014-02-03 06:42:00,
2014-02-02 23:52:00,12.0,4.0,29.87,NNW,327,3.0,-999.0,68,-99.99,,,-99.99,,2014-02-03 06:52:00,